Weather History for Douglas, WY

Change the Weather History Date:

Monday, February 18, 2013

  Actual Average Record
Temperature  
Mean Temperature 22 °F 27 °F  
Max Temperature 32 °F 40 °F 61 °F (2004)
Min Temperature 11 °F 14 °F -33 °F (2006)
Degree Days  
Heating Degree Days 43 38  
Month to date heating degree days 682 707  
Since 1 July heating degree days 4608 5038  
Cooling Degree Days 0 0  
Month to date cooling degree days 0 0  
Year to date cooling degree days 0 0  
Moisture  
Dew Point 18 °F    
Average Humidity 75    
Maximum Humidity 92    
Minimum Humidity 58    
Precipitation  
Precipitation 0.02 in 0.02 in 0.26 in (2010)
Month to date precipitation 0.10 0.27  
Year to date precipitation 0.19 0.65  
Sea Level Pressure  
Sea Level Pressure 30.03 in    
Wind  
Wind Speed 12 mph (NNW)    
Max Wind Speed 26 mph    
Max Gust Speed 33 mph    
Visibility 7 miles    
Events Fog , Snow    
T = Trace of Precipitation, MM = Missing Value Source: NWS Daily Summary

Daily Weather History Graph

Daily Weather History Graph

Search for Another Location

Airport:

Trip Planner

Search our weather history database for the weather conditions in past years. The results will help you decide how hot, cold, wet, or windy it might be!

Date:

Astronomy

Feb. 18, 2013 Rise Set
Actual Time 6:53 AM MST 5:37 PM MST
Civil Twilight 6:25 AM MST 6:06 PM MST
Nautical Twilight 5:52 AM MST 6:39 PM MST
Astronomical Twilight 5:19 AM MST 7:12 PM MST
Moon 11:21 AM MST (2/18) 1:39 AM MST (2/18)
Length of Visible Light 11h 41m
Length of Day
10h 43m
First Quarter, 59% of the Moon is Illuminated
Feb 18
First Quarter
Feb 25
Full
Mar 4
Last Quarter
Mar 11
New
Mar 19
First Quarter

Hourly Weather History & Observations

Time (MST) Temp. Windchill Dew Point Humidity Pressure Visibility Wind Dir Wind Speed Gust Speed Precip Events Conditions
12:09 AM 24.8 °F 15.3 °F 19.4 °F 80% 29.86 in 10.0 mi NW 9.2 mph - N/A   Mostly Cloudy
12:35 AM 26.6 °F 14.3 °F 19.4 °F 74% 29.86 in 10.0 mi NNW 16.1 mph 25.3 mph N/A   Overcast
12:53 AM 27.0 °F 12.5 °F 19.9 °F 75% 29.87 in 10.0 mi North 23.0 mph 33.4 mph N/A   Overcast
2:53 AM 24.1 °F 11.0 °F 19.0 °F 81% 29.94 in 10.0 mi NNW 16.1 mph - N/A   Clear
3:53 AM 25.0 °F 11.3 °F 19.0 °F 78% 29.96 in 10.0 mi NNW 18.4 mph - N/A   Mostly Cloudy
4:53 AM 26.1 °F 12.0 °F 17.1 °F 69% 29.99 in 10.0 mi North 20.7 mph 27.6 mph N/A   Overcast
5:49 AM 24.8 °F 11.5 °F 17.6 °F 74% 29.93 in 10.0 mi NNW 17.3 mph - N/A   Overcast
5:53 AM 25.0 °F 11.7 °F 18.0 °F 75% 30.03 in 10.0 mi NNW 17.3 mph - N/A   Overcast
6:02 AM 24.8 °F 12.4 °F 17.6 °F 74% 29.94 in 10.0 mi NNW 15.0 mph - N/A   Overcast
6:11 AM 24.8 °F 12.9 °F 17.6 °F 74% 29.94 in 10.0 mi NNW 13.8 mph - N/A   Overcast
6:38 AM 24.8 °F 14.6 °F 17.6 °F 74% 29.94 in 10.0 mi NNW 10.4 mph - N/A   Overcast
6:53 AM 25.0 °F 13.6 °F 18.0 °F 75% 30.04 in 10.0 mi NNW 12.7 mph - N/A   Overcast
7:53 AM 25.0 °F 14.2 °F 19.0 °F 78% 30.06 in 10.0 mi NNW 11.5 mph - N/A   Overcast
8:36 AM 26.6 °F 16.2 °F 19.4 °F 74% 29.97 in 9.0 mi NW 11.5 mph - 0.00 in Snow Light Snow
8:53 AM 27.0 °F 16.7 °F 19.0 °F 72% 30.07 in 9.0 mi NNW 11.5 mph - 0.00 in   Overcast
9:53 AM 26.1 °F 15.0 °F 19.0 °F 75% 30.09 in 2.5 mi NNW 12.7 mph - 0.00 in Snow Light Snow
10:01 AM 26.6 °F 16.8 °F 19.4 °F 74% 29.98 in 1.0 mi NNW 10.4 mph - 0.00 in Snow Light Snow
10:12 AM 24.8 °F 14.0 °F 21.2 °F 86% 29.99 in 0.8 mi NNW 11.5 mph - 0.00 in Snow Light Snow
10:53 AM 25.0 °F 14.2 °F 21.0 °F 85% 30.11 in 0.5 mi North 11.5 mph - 0.00 in Fog , Snow Snow
11:03 AM 24.8 °F 15.3 °F 21.2 °F 86% 30.00 in 1.0 mi NNW 9.2 mph - 0.00 in Snow Light Snow
11:11 AM 26.6 °F 17.5 °F 21.2 °F 80% 30.00 in 1.5 mi NNW 9.2 mph - 0.00 in Snow Light Snow
11:36 AM 26.6 °F 15.7 °F 21.2 °F 80% 30.00 in 2.0 mi NW 12.7 mph - 0.00 in Snow Light Snow
11:44 AM 26.6 °F 15.7 °F 21.2 °F 80% 30.00 in 1.0 mi NW 12.7 mph - 0.00 in Snow Light Snow
11:53 AM 25.0 °F 14.8 °F 21.0 °F 85% 30.12 in 1.0 mi NW 10.4 mph - 0.00 in Snow Light Snow
12:04 PM 28.4 °F 18.0 °F 21.2 °F 74% 29.99 in 2.0 mi NW 12.7 mph - 0.00 in Snow Light Snow
12:14 PM 28.4 °F 19.7 °F 23.0 °F 80% 29.99 in 7.0 mi NW 9.2 mph - 0.02 in Snow Light Snow
12:47 PM 26.6 °F 14.3 °F 21.2 °F 80% 29.98 in 1.8 mi NNW 16.1 mph - 0.02 in Snow Light Snow
12:49 PM 26.6 °F 13.8 °F 19.4 °F 74% 29.98 in 0.8 mi NNW 17.3 mph - 0.02 in Snow Light Snow
12:53 PM 26.1 °F 13.6 °F 21.0 °F 81% 30.08 in 0.5 mi NNW 16.1 mph - 0.02 in Snow Snow
1:03 PM 28.4 °F 17.5 °F 21.2 °F 74% 29.98 in 2.5 mi NNW 13.8 mph - 0.00 in Snow Light Snow
1:10 PM 30.2 °F 20.2 °F 21.2 °F 69% 29.97 in 9.0 mi NW 12.7 mph - 0.00 in   Mostly Cloudy
1:17 PM 30.2 °F 19.8 °F 21.2 °F 69% 29.97 in 10.0 mi NNW 13.8 mph - 0.00 in   Scattered Clouds
1:53 PM 32.0 °F 22.5 °F 19.9 °F 61% 30.06 in 10.0 mi NNW 12.7 mph - 0.00 in   Scattered Clouds
2:53 PM 28.9 °F 16.9 °F 18.0 °F 64% 30.09 in 10.0 mi NW 17.3 mph 23.0 mph N/A   Mostly Cloudy
3:53 PM 30.0 °F 18.3 °F 17.1 °F 59% 30.10 in 10.0 mi NNW 17.3 mph 25.3 mph N/A   Overcast
4:53 PM 28.0 °F 17.5 °F 17.1 °F 63% 30.12 in 10.0 mi NNW 12.7 mph - N/A   Mostly Cloudy
5:53 PM 24.1 °F 17.0 °F 16.0 °F 71% 30.14 in 10.0 mi NW 5.8 mph - N/A   Partly Cloudy
6:53 PM 21.0 °F 14.6 °F 15.1 °F 78% 30.16 in 10.0 mi NW 4.6 mph - N/A   Clear
7:53 PM 18.0 °F 11.1 °F 14.0 °F 84% 30.17 in 10.0 mi North 4.6 mph - N/A   Clear
8:53 PM 16.0 °F - 12.0 °F 84% 30.18 in 10.0 mi Calm Calm - N/A   Clear
9:53 PM 14.0 °F - 10.0 °F 84% 30.19 in 10.0 mi Calm Calm - N/A   Clear
10:53 PM 10.9 °F 4.7 °F 8.1 °F 88% 30.21 in 10.0 mi ESE 3.5 mph - N/A   Clear
11:53 PM 12.9 °F - 9.0 °F 84% 30.20 in 10.0 mi Calm Calm - N/A   Clear